Lihue, HI

9:30 PM HST on March 27, 2017 (GMT -1000)
Lihue

Weather History for PHLI - January, 2014

Change the Weather History Date:

Thursday, January 16, 2014

  Actual Average Record
Temperature  
Mean Temperature 73 °F 72 °F  
Max Temperature 80 °F 78 °F 84 °F (1956)
Min Temperature 66 °F 65 °F 54 °F (2003)
Degree Days  
Heating Degree Days 0 0  
Month to date heating degree days 0 0  
Since 1 July heating degree days 0 0  
Cooling Degree Days 8 7  
Month to date cooling degree days 113 112  
Year to date cooling degree days 113 112  
Growing Degree Days 22 (Base 50)    
Moisture  
Dew Point 66 °F    
Average Humidity 83    
Maximum Humidity 97    
Minimum Humidity 69    
Precipitation  
Precipitation 0.02 in 0.11 in 2.43 in (1968)
Month to date precipitation 0.99 2.02  
Year to date precipitation 0.99 2.02  
Snow  
Snow 0.00 in - - ()
Month to date snowfall 0.0  
Since 1 July snowfall 0.0  
Snow Depth 0.00 in    
Sea Level Pressure  
Sea Level Pressure 29.94 in    
Wind  
Wind Speed 8 mph (West)    
Max Wind Speed 12 mph    
Max Gust Speed 15 mph    
Visibility 10 miles    
Events Rain    
T = Trace of Precipitation, MM = Missing Value Source: NWS Daily Summary

Daily Weather History Graph

Daily Weather History Graph

Search for Another Location

Airport or City:

Trip Planner

Search our weather history database for the weather conditions in past years. The results will help you decide how hot, cold, wet, or windy it might be!

Date:

Astronomy

Jan. 16, 2014 Rise Set
Actual Time 7:18 AM HST 6:16 PM HST
Civil Twilight 6:54 AM HST 6:39 PM HST
Nautical Twilight 6:27 AM HST 7:07 PM HST
Astronomical Twilight 6:00 AM HST 7:34 PM HST
Moon 7:05 PM HST (1/16) 7:30 AM HST (1/16)
Length of Visible Light 11h 45m
Length of Day
10h 57m
Full, 100% of the Moon is Illuminated
Jan 16
Full
Jan 23
Last Quarter
Jan 30
New
Feb 6
First Quarter
Feb 14
Full

Hourly Weather History & Observations

Time (HST) Temp. Dew Point Humidity Pressure Visibility Wind Dir Wind Speed Gust Speed Precip Events Conditions
12:53 AM 69.8 °F 62.6 °F 78% 29.90 in 10.0 mi WSW 6.9 mph - N/A   Clear
1:53 AM 70.0 °F 64.0 °F 81% 29.88 in 10.0 mi SW 11.5 mph - N/A   Clear
2:53 AM 70.0 °F 64.9 °F 84% 29.88 in 10.0 mi SSW 12.7 mph - N/A   Clear
3:53 AM 70.0 °F 64.9 °F 84% 29.88 in 10.0 mi SSW 10.4 mph - N/A   Clear
4:53 AM 69.1 °F 64.0 °F 84% 29.89 in 10.0 mi WSW 3.5 mph - N/A   Clear
5:53 AM 66.0 °F 62.1 °F 87% 29.89 in 10.0 mi SSW 6.9 mph - N/A   Clear
6:53 AM 66.9 °F 57.9 °F 73% 29.90 in 10.0 mi WSW 6.9 mph - N/A   Partly Cloudy
7:53 AM 72.0 °F 63.0 °F 73% 29.92 in 10.0 mi SW 10.4 mph - N/A   Mostly Cloudy
8:53 AM 72.0 °F 64.9 °F 78% 29.94 in 10.0 mi WSW 10.4 mph - N/A   Scattered Clouds
9:53 AM 75.9 °F 66.0 °F 71% 29.96 in 10.0 mi WSW 11.5 mph - N/A   Mostly Cloudy
10:53 AM 73.9 °F 66.9 °F 79% 29.96 in 10.0 mi WSW 12.7 mph - N/A   Overcast
11:53 AM 77.0 °F 68.0 °F 74% 29.94 in 10.0 mi WSW 20.7 mph 25.3 mph N/A   Overcast
12:53 PM 75.9 °F 66.9 °F 74% 29.92 in 10.0 mi West 15.0 mph - 0.00 in Rain Light Rain
1:53 PM 77.0 °F 66.9 °F 71% 29.89 in 10.0 mi SW 15.0 mph 18.4 mph 0.00 in   Overcast
2:44 PM 73.4 °F 68.0 °F 83% 29.89 in 10.0 mi ENE 10.4 mph - N/A   Overcast
2:53 PM 73.9 °F 66.9 °F 79% 29.89 in 10.0 mi NE 8.1 mph - N/A   Overcast
3:44 PM 69.8 °F 66.2 °F 88% 29.90 in 2.5 mi NW 4.6 mph - 0.02 in Rain Light Rain
3:53 PM 70.0 °F 66.9 °F 90% 29.90 in 3.0 mi NW 3.5 mph - 0.02 in Rain Light Rain
4:53 PM 71.1 °F 68.0 °F 90% 29.92 in 10.0 mi West 3.5 mph - 0.00 in   Overcast
5:21 PM 71.6 °F 68.0 °F 88% 29.93 in 10.0 mi Calm Calm - N/A   Overcast
5:53 PM 71.1 °F 66.9 °F 87% 29.94 in 10.0 mi West 4.6 mph - N/A   Unknown
6:53 PM 69.1 °F 66.9 °F 93% 29.96 in 10.0 mi Calm Calm - 0.00 in   Overcast
7:53 PM 70.0 °F 68.0 °F 93% 29.98 in 10.0 mi West 4.6 mph - N/A   Overcast
8:53 PM 70.0 °F 66.9 °F 90% 29.99 in 10.0 mi Calm Calm - N/A   Overcast
9:33 PM 69.8 °F 68.0 °F 94% 30.00 in 10.0 mi WNW 3.5 mph - N/A   Overcast
9:53 PM 69.1 °F 66.0 °F 90% 30.00 in 10.0 mi North 8.1 mph - N/A   Overcast
10:06 PM 69.8 °F 66.2 °F 88% 30.00 in 10.0 mi North 8.1 mph - N/A   Overcast
10:34 PM 69.8 °F 66.2 °F 88% 30.00 in 10.0 mi North 5.8 mph - N/A   Overcast
10:53 PM 70.0 °F 64.9 °F 84% 30.00 in 10.0 mi North 6.9 mph - N/A   Overcast
11:32 PM 69.8 °F 66.2 °F 88% 30.01 in 10.0 mi North 10.4 mph - N/A   Overcast
11:53 PM 70.0 °F 66.0 °F 87% 30.01 in 10.0 mi North 8.1 mph - N/A   Overcast